GFSWCAN_500_rhum_099.txt.gz
RH
100 100 100 100 100 95 88 71 50 28 23 22 27 26 22 18 16 15 13 11 15 17 27 62 41 15 12 15 34 64 74 69 62 56 59 68 57 54 58 60 58 56 61 56 50 61 81 67 68 66 60 58 52 42
91 96 99 97 99 90 88 89 60 51 64 36 29 31 25 18 19 18 14 12 20 19 45 67 21 14 14 17 34 63 76 84 73 60 57 61 57 54 60 99 50 50 46 46 45 48 60 67 63 62 53 40 34 32
52 55 74 85 89 93 92 89 77 85 74 62 52 41 23 22 22 20 13 12 22 38 65 40 17 16 18 21 31 59 70 76 70 60 56 58 57 60 72 59 53 49 47 43 43 46 48 42 43 40 32 25 23 20
52 51 50 48 52 60 60 65 72 72 58 46 41 23 22 23 26 21 12 17 25 58 50 21 18 18 20 22 26 32 32 30 34 46 57 60 56 50 54 51 54 56 53 50 44 36 29 25 23 23 30 33 26 17
45 43 41 40 39 38 39 41 42 37 25 18 16 17 18 21 27 21 12 25 38 72 23 16 16 18 18 20 22 21 26 23 16 17 23 36 51 54 56 52 49 48 45 39 37 25 23 29 56 71 93 84 58 47
28 29 32 35 35 33 27 27 29 21 17 17 17 15 20 24 29 18 20 30 58 60 23 31 28 19 17 16 38 73 61 26 8 6 6 10 15 37 47 50 58 37 31 30 43 30 50 55 69 80 90 88 75 61
26 24 22 21 21 22 26 29 27 22 22 19 16 16 28 34 27 21 34 55 76 81 88 81 60 38 25 61 76 76 70 63 52 43 30 9 12 28 24 25 30 28 38 54 81 96 92 98 92 85 85 89 90 81
18 18 19 20 20 18 18 19 26 26 24 21 17 21 45 42 26 28 38 66 86 96 94 94 90 78 73 82 92 87 78 64 47 29 19 16 58 95 94 53 24 44 63 60 96 100 100 100 100 100 100 100 100 99
21 19 18 16 16 17 16 15 17 18 15 13 22 40 48 36 33 49 69 84 89 96 88 69 59 76 76 97 96 83 74 51 34 21 26 59 86 94 92 66 56 60 92 92 100 100 100 100 99 96 93 90 87 85
29 26 22 20 21 20 17 16 15 14 12 17 41 55 43 42 65 88 99 85 91 96 89 68 61 85 92 94 81 61 36 41 67 53 56 95 100 99 96 84 80 82 76 70 70 74 76 86 83 80 83 92 86 74
31 30 29 27 24 21 18 20 21 21 23 27 56 46 48 76 100 100 98 95 100 100 78 68 84 96 96 96 94 46 79 76 44 78 97 100 96 92 98 100 96 95 94 78 68 65 54 46 45 49 58 59 64 60
32 32 31 29 27 20 18 18 22 24 60 57 52 67 93 100 100 96 87 92 98 89 80 70 92 94 94 80 87 61 41 40 56 66 72 69 91 87 72 78 93 100 100 98 92 84 68 54 46 48 60 55 50 51
32 32 30 28 28 22 21 23 30 74 61 78 99 100 100 99 95 70 77 99 100 94 81 74 86 84 72 80 62 68 36 65 48 39 49 52 64 74 69 72 100 100 100 99 98 99 96 92 87 82 77 74 71 69
34 29 26 26 26 25 24 47 73 63 100 100 100 100 99 90 66 93 100 88 79 66 66 67 81 66 79 100 100 100 80 55 46 55 67 62 59 84 100 100 100 100 96 89 81 72 63 60 61 64 67 69 68 66
30 25 24 24 24 26 68 75 66 88 100 100 100 100 83 79 95 100 100 86 61 51 63 78 81 72 76 88 95 98 92 95 94 94 99 100 100 95 93 95 94 87 73 64 69 72 61 50 44 43 44 44 45 46
23 22 22 22 27 70 76 68 85 100 100 100 81 82 77 82 100 100 94 73 45 40 60 86 88 62 75 70 77 91 100 100 100 100 100 97 98 88 73 59 65 77 60 46 46 45 44 45 44 44 44 45 46 49
20 19 20 27 75 78 71 81 100 100 100 79 72 84 79 93 100 87 73 51 39 36 63 82 93 71 58 60 69 90 96 97 100 100 99 88 65 65 89 67 48 50 49 48 47 48 48 46 46 48 49 52 53 53
22 28 60 82 76 73 87 97 98 85 74 65 72 80 89 89 84 77 71 55 38 32 43 66 81 68 58 62 84 79 94 100 100 100 82 71 87 54 50 52 51 51 52 51 52 51 51 50 50 50 49 47 40 33
85 85 80 77 84 93 86 84 75 66 70 68 69 76 85 74 71 66 57 49 36 28 29 45 62 66 56 58 65 78 88 98 97 74 86 57 51 56 55 56 58 59 58 56 54 53 55 56 50 43 34 28 24 20
93 91 93 97 100 100 88 77 81 83 88 84 88 91 82 72 63 61 54 49 31 24 19 30 52 63 56 48 54 69 96 90 79 73 52 57 61 62 63 64 65 64 60 59 60 59 55 46 38 30 25 21 15 12
100 100 100 90 86 85 78 88 78 71 86 84 83 87 96 79 65 54 42 39 28 22 18 40 55 60 46 45 67 92 80 80 59 55 62 62 66 70 72 70 70 66 63 62 60 55 46 37 30 26 21 14 12 14
100 100 98 100 100 96 85 87 79 91 100 97 63 59 65 69 69 61 50 39 21 19 25 50 59 44 47 70 86 78 77 53 61 63 63 69 73 76 76 76 72 69 66 64 60 50 40 32 29 23 14 13 16 22
100 99 93 83 85 78 83 81 86 94 95 59 61 62 65 59 54 54 40 34 29 39 55 57 45 57 77 78 75 69 55 64 59 60 67 78 85 84 80 78 76 72 69 65 55 44 35 31 26 15 13 17 22 26
81 60 61 67 77 100 100 82 84 84 80 82 87 93 86 78 66 58 46 55 63 63 53 50 69 76 67 72 55 61 58 53 64 82 88 89 87 85 84 86 81 75 70 62 48 38 34 28 17 13 16 21 24 25
100 100 100 99 100 99 88 86 80 74 73 75 90 97 83 54 50 53 58 62 55 50 67 77 65 71 57 59 55 47 56 77 86 85 86 88 90 89 88 88 83 78 70 54 42 36 29 18 13 16 22 24 24 24
100 99 100 100 98 96 75 64 55 56 66 76 88 86 55 51 52 53 50 46 65 72 62 70 58 57 51 43 51 67 75 77 80 84 85 91 91 91 90 88 83 78 62 49 39 32 21 12 14 22 28 28 28 28
100 100 100 94 100 100 89 88 93 73 63 65 64 53 51 47 49 55 69 71 59 67 59 55 58 43 46 61 59 63 74 84 89 97 94 94 91 92 93 90 84 72 57 45 37 26 14 12 18 28 32 32 31 32
100 100 100 79 91 86 85 86 85 79 68 57 51 50 54 60 72 59 54 64 54 53 58 50 47 62 59 53 67 83 95 99 98 93 94 96 95 97 95 91 82 66 54 43 33 18 12 14 22 28 30 30 30 31
100 100 89 65 55 52 71 84 87 79 68 66 68 68 60 48 56 66 50 52 55 47 47 57 56 56 67 82 88 89 80 77 87 95 98 97 98 99 95 91 78 64 52 42 26 14 14 17 20 22 22 23 25 28
100 94 73 60 47 44 48 52 52 50 50 48 44 50 69 57 47 51 52 47 40 46 50 49 54 60 53 51 57 48 40 46 83 99 100 100 100 98 95 88 75 62 50 34 17 14 16 16 17 19 24 32 39 46
85 63 48 40 41 40 38 39 38 40 45 61 71 56 43 47 50 52 50 44 39 37 34 31 29 26 28 35 36 31 33 72 100 100 100 100 98 96 92 82 69 57 42 24 14 15 16 17 27 38 40 41 43 44
56 40 37 31 34 34 35 41 61 67 55 45 42 44 48 48 49 47 43 40 36 30 27 25 25 26 29 28 27 30 65 98 100 100 100 100 96 94 88 75 63 49 31 17 15 16 18 31 36 35 36 37 36 37
52 39 35 34 36 46 59 62 49 44 50 60 63 59 54 52 52 52 52 50 44 38 34 33 32 30 27 27 32 63 95 100 100 100 100 97 96 92 80 68 54 38 22 15 16 18 30 34 34 33 32 35 49 56

GFSWCAN_500_rhum_102.txt.gz
RH
100 100 100 100 100 100 100 100 100 100 100 91 53 26 14 18 30 29 26 15 13 14 13 14 16 38 41 16 9 13 35 69 82 54 48 41 44 66 94 77 77 86 71 65 55 50 46 65 72 74 65 65 66 63
100 100 100 100 100 100 100 100 100 96 76 51 33 19 23 39 30 36 21 16 17 14 13 16 35 49 26 10 11 15 39 64 97 64 45 40 35 53 62 100 54 52 49 45 39 38 32 33 62 65 64 61 52 53
100 100 100 100 100 100 100 98 92 89 79 41 47 73 43 34 40 37 19 20 20 14 15 24 51 27 11 11 14 21 54 63 87 88 76 56 43 46 56 53 59 42 40 38 36 34 34 34 45 60 61 57 51 42
98 100 100 100 100 100 96 98 96 97 86 84 86 64 55 56 53 28 22 22 20 15 19 42 26 11 11 14 18 27 48 57 69 79 68 60 59 56 59 62 50 46 44 42 42 43 43 42 42 41 32 29 26 27
63 58 58 71 80 94 98 97 99 100 91 88 92 83 68 61 40 23 23 24 19 16 24 52 15 14 15 18 20 24 24 26 36 42 46 56 63 59 64 71 47 45 44 44 48 46 43 38 31 27 35 46 52 53
61 59 57 54 54 58 60 65 67 72 68 64 64 63 53 42 20 16 22 23 18 18 42 26 31 24 18 18 19 26 71 54 20 17 22 28 43 53 62 99 95 63 45 45 43 43 34 25 31 30 56 75 88 94
54 53 52 52 51 48 47 46 45 43 42 41 40 25 17 17 18 18 25 23 22 25 55 51 58 30 19 18 31 76 79 72 66 48 23 9 10 30 71 96 68 54 52 37 33 29 31 33 57 67 80 92 94 99
41 43 44 45 43 39 35 32 32 28 28 28 20 18 18 18 18 26 28 26 21 34 63 85 91 77 56 61 73 84 82 76 66 54 40 29 32 98 100 100 78 47 34 38 40 57 83 87 95 99 100 100 100 100
30 28 27 27 27 29 32 32 31 30 26 25 24 22 22 19 36 36 31 26 29 52 81 90 83 84 88 84 92 96 90 78 63 54 39 43 98 100 100 99 91 60 34 43 57 71 81 100 100 100 100 98 92 85
27 28 27 27 26 23 21 20 21 26 28 26 24 26 24 48 40 37 34 31 45 77 92 96 74 79 83 100 100 84 60 38 89 45 47 39 87 94 76 78 90 86 66 46 49 60 71 85 93 94 91 82 80 73
24 22 21 21 22 22 21 20 19 19 23 25 25 21 43 40 41 39 34 34 63 87 98 94 74 84 100 96 100 77 95 87 82 96 78 100 100 100 100 98 95 92 87 79 70 61 56 49 46 49 53 60 60 52
33 30 24 21 21 21 20 20 19 18 19 20 31 44 51 51 58 60 38 56 72 94 100 86 78 95 100 100 100 77 79 80 90 85 100 100 92 92 84 84 76 81 97 99 93 76 70 64 58 52 50 47 42 38
35 34 29 29 28 26 24 23 21 21 20 43 62 59 53 76 86 47 49 72 96 100 93 75 87 98 94 84 78 64 47 66 89 84 78 68 63 66 68 58 70 93 93 92 88 84 78 72 68 68 65 64 64 63
35 33 34 34 32 30 24 21 20 23 31 66 62 91 74 86 62 69 88 98 92 88 75 75 88 82 78 67 76 79 87 74 54 66 71 64 56 59 62 85 87 89 92 91 78 60 53 53 58 59 56 46 41 39
40 36 38 36 31 31 23 23 23 42 66 64 81 99 84 81 86 100 100 100 89 82 72 70 84 74 78 100 98 100 91 82 82 99 92 87 92 95 91 90 91 81 69 65 67 60 48 43 43 43 40 36 35 36
46 45 39 31 30 28 25 28 63 77 76 99 100 96 84 100 100 100 100 100 87 62 70 80 88 68 76 92 100 100 100 100 100 100 100 99 93 92 77 60 66 71 56 47 47 48 47 44 41 41 42 42 41 38
48 40 29 27 29 26 32 85 77 90 100 100 97 83 94 100 100 100 97 92 64 58 64 91 91 76 74 71 78 84 96 97 98 98 96 97 82 64 75 60 48 49 51 53 53 50 46 45 45 45 45 44 40 38
36 27 25 26 26 29 74 77 90 100 100 100 85 98 100 100 100 100 89 73 51 38 57 84 84 70 62 61 82 68 78 88 98 95 86 66 76 57 50 54 57 59 59 59 58 55 52 51 49 47 45 42 38 33
24 23 23 24 35 68 76 76 99 98 100 100 86 100 100 100 100 99 82 63 51 35 33 43 64 74 75 60 64 66 68 84 86 80 71 72 52 56 61 64 66 66 64 62 60 59 58 56 53 49 44 39 34 29
22 22 25 59 83 80 72 80 88 99 100 100 96 100 100 100 100 96 85 62 43 32 24 26 42 58 63 55 48 51 59 68 81 73 68 54 60 62 67 71 71 74 74 73 72 67 63 60 56 50 43 35 31 26
22 43 84 85 77 71 72 93 84 94 91 95 100 100 100 100 91 77 71 55 41 35 29 22 21 37 55 51 40 42 54 77 72 65 55 61 62 65 74 84 86 84 82 83 79 73 69 64 55 47 37 31 24 14
89 86 81 77 76 79 82 92 92 98 100 100 99 87 79 78 67 62 53 44 36 31 26 22 18 24 46 45 38 47 72 70 64 57 61 59 69 86 91 90 89 84 82 83 80 74 69 61 52 42 33 26 16 10
98 98 99 98 100 100 100 95 94 100 100 99 87 72 58 52 52 52 44 38 37 32 24 18 16 24 42 40 45 68 70 62 58 58 61 83 88 90 92 89 87 85 82 83 83 77 69 59 49 38 31 19 11 11
100 98 91 90 80 82 81 80 85 93 94 96 85 63 42 38 39 33 25 34 35 22 15 14 20 38 41 50 68 66 57 57 54 68 81 84 88 92 90 90 91 88 86 86 82 77 66 57 46 36 26 13 11 14
88 90 73 72 81 70 64 78 83 85 83 77 87 63 52 48 43 38 34 42 40 25 19 20 38 41 57 64 61 57 51 57 72 71 83 93 94 92 89 90 93 88 88 87 84 76 65 55 41 33 19 12 13 17
65 51 48 48 61 74 84 78 71 75 79 75 58 74 95 85 66 52 52 58 31 26 31 36 44 61 61 58 54 50 58 63 71 92 92 84 79 82 90 93 86 95 95 91 85 75 63 48 38 26 14 13 14 16
99 94 97 100 100 97 94 82 78 78 60 60 75 90 98 83 52 48 52 39 38 38 43 61 62 58 57 50 53 55 64 89 92 80 60 48 53 76 94 97 95 93 93 88 84 70 56 44 34 18 13 14 15 19
100 100 100 100 100 100 93 80 68 61 57 60 76 79 65 44 52 54 50 41 45 60 61 60 56 55 52 58 52 75 86 76 61 48 35 35 57 90 100 100 97 98 94 91 80 64 50 41 24 15 14 17 27 34
100 100 100 95 100 100 99 92 90 90 72 66 59 60 62 62 55 46 58 64 56 56 53 55 52 56 51 61 78 58 36 36 36 32 31 47 75 95 100 100 100 98 96 88 72 57 46 31 17 15 18 26 31 33
100 100 100 89 77 72 79 87 87 82 78 75 65 58 58 58 61 55 54 54 52 54 52 49 51 48 46 40 30 27 28 30 29 28 39 66 95 100 100 100 100 99 92 78 63 49 37 20 16 18 26 30 31 30
100 100 98 84 81 70 73 79 78 72 67 66 65 64 54 46 51 53 51 52 53 47 41 42 39 35 29 27 27 29 32 30 29 30 40 86 100 100 100 100 100 97 83 68 53 42 24 17 18 25 30 30 30 41
99 86 82 66 66 58 54 51 50 49 47 43 41 49 58 53 47 48 51 52 49 43 40 36 33 34 36 37 40 39 36 30 31 34 67 100 100 100 100 100 100 85 70 55 46 27 18 18 24 29 29 31 44 48
72 60 52 43 42 42 40 38 37 39 45 55 62 55 46 44 46 50 51 49 45 43 44 50 54 56 58 58 51 43 34 32 37 72 100 100 100 100 100 100 87 70 56 48 31 20 18 23 29 29 33 45 49 49

GFSWCAN_500_rhum_108.txt.gz
RH
100 100 100 98 100 100 100 100 100 100 100 100 100 100 100 98 92 88 77 62 41 29 32 41 34 23 15 13 12 11 10 8 7 7 12 88 97 87 100 99 100 100 100 100 100 96 92 87 66 66 66 62 66 66
100 100 100 100 100 100 100 100 100 100 100 100 100 100 100 100 95 89 60 34 27 35 40 40 27 18 16 14 12 12 8 6 6 8 23 93 100 99 96 100 100 100 99 89 75 74 59 34 28 26 25 36 56 59
100 100 100 100 100 100 100 100 100 100 100 100 100 100 100 100 98 65 31 22 37 47 44 38 23 19 16 13 14 12 7 8 9 11 29 78 100 100 91 95 100 99 90 73 63 40 33 31 25 23 21 23 31 40
100 100 100 100 100 100 100 100 100 100 100 100 100 100 100 100 60 38 26 43 50 47 43 31 22 17 14 15 16 8 9 12 18 25 37 59 96 100 89 76 78 87 78 61 54 47 36 28 22 21 22 28 36 39
100 100 100 100 100 100 100 100 100 100 100 100 100 100 97 59 41 28 53 57 52 49 39 24 20 15 15 18 9 10 13 24 42 57 63 77 87 98 90 68 50 50 56 68 50 39 34 26 26 27 29 36 38 39
100 100 100 100 100 100 100 100 100 100 100 100 100 96 77 46 69 77 53 59 60 56 31 20 18 15 17 8 9 13 20 38 34 32 46 80 87 85 82 74 64 50 49 51 49 42 34 34 36 33 36 36 38 37
100 100 100 100 100 100 100 100 100 100 99 97 93 67 61 85 79 61 63 61 55 40 22 20 16 17 14 8 10 15 35 80 84 65 30 34 62 65 60 65 71 74 73 62 53 46 43 45 43 38 42 41 40 52
100 100 100 100 100 100 100 100 100 99 99 100 97 94 91 87 85 78 72 63 50 24 19 18 17 21 26 12 13 39 70 79 78 75 67 41 15 27 38 47 53 61 66 63 56 59 63 50 44 46 49 64 74 68
100 100 100 100 100 100 100 100 100 100 100 100 100 91 80 85 72 64 60 47 23 21 21 18 16 29 55 56 58 66 76 85 81 72 67 55 39 28 23 20 47 63 59 50 43 44 47 44 44 43 43 44 58 60
100 100 100 100 100 100 100 100 100 99 100 99 93 84 73 56 49 47 32 22 21 23 22 20 27 54 72 65 61 66 70 67 60 61 50 51 50 58 76 95 95 74 44 39 43 44 40 29 25 21 21 22 23 21
97 96 97 98 99 99 98 94 87 78 77 69 58 51 44 39 38 33 25 22 24 23 21 21 45 82 78 70 74 66 67 75 80 92 62 42 76 94 84 83 87 83 73 73 74 73 72 66 56 50 44 41 31 27
83 79 74 70 68 66 64 58 55 58 53 49 44 39 35 34 29 26 24 24 24 24 22 37 81 87 82 81 92 80 75 68 92 76 94 94 88 88 87 85 67 65 71 85 100 98 91 92 91 86 79 70 61 57
73 71 70 67 65 62 58 55 51 46 42 37 33 29 28 27 25 22 24 28 31 31 43 69 93 87 92 84 89 84 83 52 79 81 88 91 78 72 74 66 62 73 92 93 91 90 90 83 73 68 63 56 48 43
55 55 54 54 51 50 50 48 45 40 38 35 33 31 29 25 24 28 28 27 28 35 60 89 97 82 98 100 84 66 36 63 81 79 84 81 69 65 67 87 98 97 92 80 72 72 67 54 47 45 45 45 43 41
50 47 44 44 42 41 38 36 33 32 33 33 33 30 28 26 27 29 28 33 39 56 77 92 96 83 94 93 48 34 61 72 73 80 84 81 88 90 96 97 86 66 75 64 50 48 49 53 56 54 51 50 51 55
34 32 32 30 30 30 29 28 25 23 22 22 22 21 22 23 28 37 56 58 72 80 93 94 94 82 87 44 39 52 61 76 78 85 94 99 100 99 96 77 76 58 50 52 58 62 63 65 65 67 70 70 66 63
38 34 30 27 25 24 23 23 24 24 23 22 22 21 25 34 36 65 87 98 89 89 93 96 76 79 52 42 70 89 93 100 100 100 100 100 96 78 78 61 51 55 60 64 66 72 77 78 79 75 66 56 54 56
48 42 40 34 30 27 26 24 23 21 20 25 36 35 43 56 67 83 82 84 94 100 97 82 76 70 59 78 79 66 84 94 94 96 99 90 75 73 53 53 57 62 70 81 83 83 82 78 72 65 58 58 64 71
43 43 44 40 35 32 30 26 23 22 29 68 100 100 81 76 98 98 91 91 100 89 76 81 86 87 64 60 68 69 60 55 61 76 78 80 70 56 54 59 62 79 87 87 84 78 74 72 69 65 65 65 65 64
43 47 46 39 37 34 31 25 24 44 79 99 100 100 100 95 90 84 81 93 100 67 57 78 72 81 75 60 50 44 43 53 54 58 65 74 65 55 58 62 80 88 89 83 75 72 74 75 72 71 69 70 71 69
33 40 41 44 35 33 30 26 35 84 99 100 100 100 100 100 95 96 91 86 84 50 49 42 42 52 58 63 57 45 42 41 44 47 70 74 61 58 61 78 88 87 70 58 58 70 77 79 76 72 73 76 76 78
32 38 43 35 33 33 31 42 81 100 97 100 100 100 100 99 92 86 82 75 67 57 41 32 31 28 24 28 42 53 49 39 39 56 74 70 59 59 71 90 86 65 47 37 41 65 75 78 76 75 77 77 80 81
41 36 31 29 27 27 42 82 100 98 100 100 100 100 100 100 90 79 60 61 67 57 45 38 31 26 21 18 20 40 46 40 42 65 68 59 57 67 88 90 72 53 36 32 33 36 53 77 84 86 87 88 90 86
28 28 27 26 26 35 70 96 87 83 100 100 100 99 96 90 80 61 55 61 59 50 43 37 30 26 21 17 16 27 37 43 60 64 62 56 60 85 92 77 56 39 32 29 29 35 52 80 90 92 94 96 92 73
25 29 30 33 42 56 64 68 61 62 79 80 69 69 76 75 61 54 53 50 43 37 33 27 28 22 20 17 15 21 38 47 57 65 56 54 73 92 72 42 36 32 31 31 32 42 72 93 98 97 97 94 79 59
82 83 81 87 83 80 76 75 74 76 76 76 74 76 78 70 57 48 36 28 22 20 18 16 14 13 14 14 14 26 36 54 63 57 52 62 82 73 37 30 33 36 38 36 38 59 92 100 100 100 96 80 60 49
100 100 100 100 100 100 94 88 82 75 75 66 60 66 68 57 46 32 27 32 29 24 22 20 18 15 13 12 18 30 56 61 58 51 60 86 74 34 31 39 46 48 43 41 47 90 100 100 100 99 83 60 48 31
80 94 90 81 86 81 79 77 82 80 78 68 64 60 52 41 36 32 32 50 64 54 28 17 15 14 13 18 29 61 63 59 53 60 80 57 32 33 49 63 62 50 43 44 80 100 100 100 100 83 59 47 29 18
100 100 100 100 85 81 79 81 82 72 65 60 49 43 40 36 37 40 52 78 76 36 21 19 19 19 23 43 68 66 59 54 57 61 45 34 37 62 79 74 60 48 45 68 99 100 100 99 81 57 47 27 18 22
93 97 100 100 100 100 100 99 98 85 61 52 54 53 46 43 44 62 74 68 51 34 30 29 30 44 58 66 64 60 55 53 50 38 38 52 74 88 82 66 54 47 64 99 100 100 100 79 56 46 25 16 23 28
98 96 100 100 100 100 100 100 100 87 78 70 62 53 52 56 64 68 64 51 44 44 46 53 61 66 63 59 56 53 46 37 34 42 62 81 86 77 67 58 50 64 99 100 100 99 76 56 46 24 16 23 28 33
100 100 100 100 100 100 100 100 100 100 97 88 75 62 57 58 61 58 56 56 62 67 64 60 56 53 55 54 45 38 37 39 47 65 77 79 73 66 59 51 66 100 100 100 96 72 53 43 22 15 24 28 31 48
100 100 100 100 100 100 100 100 100 100 98 86 74 70 69 67 70 73 73 65 60 57 59 56 54 54 54 52 48 47 50 58 70 75 74 68 61 57 52 75 100 100 100 91 66 50 40 19 15 24 27 30 47 62

GFSWCAN_500_rhum_114.txt.gz
RH
100 100 100 100 100 100 100 100 100 100 100 100 98 99 100 100 100 100 100 100 100 100 67 53 53 45 42 42 44 38 31 24 19 14 10 10 9 8 10 31 50 98 100 100 100 100 100 100 100 98 87 87 86 80
100 100 100 100 100 100 100 100 100 100 100 100 100 100 100 100 100 100 100 100 100 74 52 52 49 42 42 47 44 35 28 21 13 9 10 10 8 7 35 99 75 89 100 100 100 100 100 100 100 77 75 80 66 60
100 100 100 100 100 100 100 100 100 100 100 100 100 100 100 100 100 100 100 100 97 69 63 58 53 37 44 48 38 29 21 12 9 7 6 7 7 8 46 100 99 96 100 100 100 100 100 100 92 40 29 26 24 23
100 100 100 100 100 100 100 100 100 100 100 100 100 100 100 100 100 100 100 100 92 72 61 51 43 46 50 41 33 21 11 10 9 16 14 9 9 14 32 93 100 100 100 100 100 100 100 100 96 41 32 28 26 22
100 100 100 100 100 100 100 100 100 99 100 100 100 100 100 100 100 100 100 96 84 73 54 39 45 51 44 32 20 12 11 10 20 32 40 45 21 17 38 66 100 100 100 100 100 100 100 98 76 51 40 31 26 20
100 100 100 100 100 100 100 100 100 100 100 100 100 100 100 100 100 100 100 98 95 68 40 48 50 43 36 23 12 12 12 22 35 38 43 49 58 51 47 89 88 100 100 100 100 100 100 94 66 49 41 31 25 23
100 100 100 100 100 98 99 100 100 100 100 100 100 100 100 100 100 100 100 87 72 47 45 53 50 43 31 14 13 13 20 28 32 45 52 44 44 53 64 93 98 100 100 100 100 100 97 72 56 48 40 31 26 22
100 100 100 100 100 100 100 100 100 100 100 100 100 100 100 100 100 100 94 68 61 50 55 52 47 32 16 14 15 12 17 22 40 52 62 65 60 34 61 86 75 91 98 100 98 85 70 58 52 44 37 30 28 28
100 100 100 100 100 100 100 100 100 100 100 100 100 100 100 100 100 93 70 51 60 60 53 49 40 24 15 14 18 16 29 46 48 50 56 70 64 52 27 59 46 59 66 68 60 53 43 39 38 35 32 30 27 26
100 100 100 100 100 100 100 100 100 99 100 100 100 100 100 100 90 71 75 79 71 60 54 37 22 16 15 17 21 33 48 47 43 37 41 53 65 59 37 22 34 48 44 36 34 35 31 27 22 20 20 16 15 14
100 100 100 100 100 100 100 100 99 99 100 100 100 100 100 92 90 97 90 73 63 55 41 23 17 16 18 21 26 43 49 47 40 39 36 40 47 55 53 45 60 70 58 46 43 42 36 33 28 26 23 21 19 23
100 100 100 100 99 100 100 100 100 100 100 100 100 99 96 99 100 92 77 62 43 34 24 18 17 17 18 20 34 56 56 51 45 38 40 36 58 71 74 77 86 83 78 74 73 72 70 60 48 46 49 50 47 43
100 100 100 100 100 100 100 100 100 100 100 100 97 100 100 94 82 74 60 42 29 28 24 17 17 18 22 25 56 66 66 64 34 50 66 76 83 86 91 88 80 67 66 80 85 85 79 69 58 50 46 46 48 52
100 100 100 100 100 100 100 100 100 100 100 100 100 100 97 90 71 50 35 28 26 24 19 16 18 21 26 37 60 73 79 57 37 69 81 77 73 70 66 64 76 94 96 94 79 66 56 53 58 58 61 68 71 68
100 100 100 100 99 100 100 100 100 100 100 100 100 95 74 51 40 33 29 29 28 22 18 17 17 19 30 51 68 78 71 31 52 64 73 68 76 97 100 100 98 93 73 72 56 60 65 66 72 80 75 67 58 52
100 100 100 100 100 100 100 100 100 100 100 95 78 57 48 43 36 32 28 27 24 21 18 17 18 24 37 58 71 84 48 42 67 60 65 79 98 100 100 99 80 75 57 63 69 68 74 85 83 74 61 54 49 47
100 100 100 98 98 100 96 94 90 84 75 63 50 48 41 38 36 33 28 26 24 21 18 16 19 30 52 69 74 65 58 54 63 63 85 96 100 100 87 82 68 57 62 64 66 78 88 84 70 59 52 38 32 34
99 98 97 94 89 84 78 72 66 62 59 53 49 45 42 38 36 33 29 25 23 22 19 22 28 41 66 77 57 35 54 71 91 95 97 100 100 93 86 74 57 58 61 62 70 83 85 68 54 45 34 30 32 35
86 85 84 77 73 71 66 62 57 55 52 50 46 43 41 37 32 27 24 22 22 22 25 41 59 74 78 69 35 38 60 76 86 95 96 86 85 79 82 71 56 56 58 61 76 85 79 66 59 47 34 38 53 49
76 72 72 68 64 63 59 55 53 49 44 41 40 35 31 26 24 23 23 24 37 46 66 81 82 79 76 58 45 49 48 60 67 79 69 69 64 63 74 69 57 57 59 63 83 86 80 67 48 34 40 68 73 54
67 65 64 62 59 56 52 48 44 40 33 31 29 26 25 24 23 24 28 59 73 70 92 87 88 85 79 63 64 63 62 63 61 47 38 38 43 50 67 68 62 59 59 70 88 91 82 56 34 34 71 86 79 57
54 53 49 42 39 41 40 38 34 33 32 28 27 26 25 26 29 43 69 81 95 98 91 88 94 93 92 86 62 50 47 43 37 34 34 33 37 38 56 67 63 58 60 73 90 92 76 42 35 57 91 88 72 58
46 43 41 35 32 31 30 28 27 26 26 27 36 34 39 50 79 93 88 95 100 99 89 78 71 61 64 70 70 66 57 52 45 41 37 35 35 36 47 63 62 58 57 68 82 83 60 38 49 92 92 78 62 61
50 47 43 38 37 33 32 30 28 26 25 34 87 100 99 97 97 97 99 100 97 93 92 75 53 42 35 31 28 23 20 21 21 22 27 31 35 37 44 63 64 59 53 64 78 70 41 46 90 94 82 67 61 79
44 43 42 41 38 36 34 32 29 25 40 100 99 100 100 98 100 100 100 100 95 91 91 84 61 44 39 36 31 25 24 21 19 18 18 20 24 32 45 63 67 59 55 66 62 44 46 82 92 86 72 62 74 93
36 37 38 40 38 33 33 30 29 64 100 96 83 86 97 92 85 96 100 98 76 68 68 66 61 53 46 41 37 33 30 27 23 20 17 16 19 26 44 66 67 56 54 55 43 42 64 86 88 76 63 72 93 100
39 39 35 33 33 33 35 52 87 88 93 98 100 98 86 82 90 100 99 83 61 53 58 56 49 43 35 32 27 22 22 23 20 16 16 15 16 27 59 68 64 57 53 41 39 48 78 88 84 65 72 92 99 78
34 34 33 31 36 44 51 100 100 89 76 81 83 81 96 98 92 84 74 67 64 56 52 47 35 26 19 16 15 14 14 14 13 12 13 14 23 52 65 67 64 55 43 39 46 75 91 92 73 74 94 98 74 50
85 80 72 64 50 52 74 99 81 64 77 77 65 69 76 77 68 62 57 52 55 56 52 44 35 29 22 20 22 18 14 14 12 12 14 30 56 67 72 69 61 44 41 52 79 90 96 85 80 93 98 71 48 26
100 100 100 100 91 68 64 73 85 72 60 59 62 65 57 50 49 50 45 44 46 42 41 41 36 31 27 35 36 31 23 18 16 24 44 64 71 72 69 58 45 49 68 84 92 100 89 87 96 97 67 47 26 14
100 100 100 100 100 100 93 82 77 73 70 69 69 66 63 58 55 51 46 43 41 35 28 25 26 28 44 52 46 32 27 34 50 63 70 70 69 66 57 57 67 77 85 97 100 90 92 96 93 66 46 26 14 18
100 100 99 96 93 92 100 100 100 100 96 92 82 73 66 52 40 34 31 32 36 35 34 38 43 59 60 52 50 56 62 65 68 70 70 67 62 62 65 72 81 96 100 99 92 96 97 89 62 45 25 13 18 21
100 99 93 90 83 94 99 84 95 100 94 93 91 83 64 51 41 37 40 38 40 47 54 60 63 60 63 73 72 71 71 71 68 63 59 59 63 74 88 100 100 100 96 95 100 97 87 61 44 25 13 18 21 24

GFSWCAN_500_rhum_117.txt.gz
RH
100 100 100 100 100 100 100 99 99 95 99 99 100 100 100 100 100 100 100 100 100 100 100 100 99 87 93 53 36 38 41 40 33 27 21 13 7 6 8 8 7 9 31 92 100 100 100 100 100 100 100 97 94 94
100 100 100 100 100 100 100 100 100 100 100 100 100 100 99 100 100 100 100 100 100 100 100 100 100 97 70 38 37 41 44 39 29 20 12 6 5 6 8 12 12 22 38 92 100 100 100 100 100 100 100 85 88 78
100 100 100 100 100 100 100 100 100 100 100 100 100 100 100 100 100 100 100 100 100 100 100 100 98 87 51 42 42 46 43 32 20 9 5 7 8 7 7 11 96 99 92 100 100 100 100 100 100 100 95 70 63 54
100 100 100 100 100 100 100 100 100 100 100 100 100 100 100 100 100 100 100 100 100 100 100 95 89 57 47 45 48 47 34 18 8 6 9 13 20 16 9 15 59 100 100 100 100 100 100 100 100 100 76 37 31 27
100 100 100 100 100 100 100 100 100 100 100 100 100 100 100 100 100 100 100 100 100 97 98 95 84 53 46 50 47 34 17 6 7 11 17 22 31 39 22 15 28 73 100 100 99 100 100 100 100 100 71 40 33 30
100 100 100 100 100 100 100 100 100 100 100 100 100 100 100 100 100 100 100 100 100 100 99 93 63 50 52 44 32 16 6 9 12 17 24 32 38 43 53 36 66 94 85 100 100 100 100 100 100 100 76 59 49 29
100 100 100 100 100 100 100 100 100 100 100 100 100 100 100 100 100 100 100 100 99 100 95 74 59 55 46 36 17 7 9 15 17 19 25 33 42 42 52 56 79 100 98 97 100 100 100 100 100 98 78 56 40 31
100 100 100 100 100 100 100 100 100 100 100 100 100 100 100 100 100 100 100 100 100 100 89 64 59 49 38 19 9 9 11 18 19 28 37 46 50 54 42 55 74 98 100 98 100 100 99 98 97 90 69 47 40 36
100 100 100 100 100 100 100 100 100 100 100 100 100 100 100 100 100 100 100 100 97 70 71 65 54 40 25 11 8 8 13 19 31 35 37 33 38 61 54 33 80 83 90 96 100 99 94 90 83 56 41 34 29 26
100 100 100 100 100 100 100 100 100 100 100 100 100 100 100 100 100 100 100 91 88 79 73 57 44 24 13 10 9 10 16 22 36 40 36 30 29 49 60 36 35 44 58 73 62 53 43 40 38 34 26 22 18 15
100 100 100 100 100 100 100 100 100 100 100 99 100 100 100 100 100 100 89 74 87 87 72 50 29 15 10 9 11 14 18 30 44 41 35 27 24 38 57 44 36 58 70 75 62 56 52 51 47 36 29 23 16 20
100 100 100 99 100 100 100 100 100 100 100 100 100 100 100 100 99 96 97 96 93 74 49 28 16 12 11 11 13 18 23 43 50 45 31 22 28 47 61 69 83 85 85 82 79 81 85 84 75 62 58 51 46 41
100 98 98 100 99 100 100 98 94 99 100 100 100 100 100 97 96 98 97 93 65 39 24 18 15 13 12 13 15 17 36 56 53 31 35 38 56 74 90 92 87 77 68 65 76 89 91 84 74 60 51 56 60 64
100 98 98 100 99 100 100 100 100 100 100 100 100 98 94 96 98 98 83 58 38 25 20 17 14 12 13 14 17 21 51 62 50 34 64 78 85 86 86 84 71 76 93 98 96 88 77 63 60 71 75 75 69 61
100 100 99 100 100 100 100 100 100 100 100 99 98 96 96 99 96 78 55 36 29 24 20 17 14 13 13 15 18 45 66 62 31 54 72 71 71 92 96 91 89 92 97 82 80 62 62 73 80 83 78 68 58 51
99 100 100 100 100 100 100 100 100 100 100 100 99 99 100 98 66 40 32 28 25 24 22 18 14 14 14 16 30 60 71 38 46 59 69 70 84 93 92 95 98 90 78 64 61 71 73 86 88 82 67 58 50 42
100 100 100 100 100 100 100 100 100 100 100 100 100 97 84 55 41 34 29 25 23 22 20 18 15 14 16 24 50 64 70 37 53 58 61 78 97 98 96 91 82 77 59 62 66 68 79 87 87 76 63 59 59 45
100 100 100 100 100 100 100 100 100 100 100 99 94 74 56 42 38 33 30 27 25 23 21 19 17 16 17 29 64 67 54 47 44 54 80 89 93 96 91 84 78 58 58 62 62 63 72 85 86 82 74 67 46 35
100 100 100 100 100 100 100 100 98 98 91 81 63 55 46 42 36 34 32 31 28 24 20 19 18 17 24 50 73 66 44 53 62 80 87 86 86 86 79 77 74 61 57 58 58 60 66 80 85 84 82 71 41 40
93 96 96 97 97 96 91 82 76 69 65 58 54 47 44 42 38 35 33 30 25 22 20 19 19 24 50 74 75 48 38 58 73 75 80 80 76 69 63 64 71 70 62 59 59 59 63 75 85 90 89 75 45 49
83 80 81 81 77 72 68 63 58 55 51 49 48 46 43 42 38 36 31 26 22 26 28 22 32 68 83 83 77 49 41 45 49 51 60 63 44 39 42 48 58 68 68 66 62 60 61 69 77 83 88 62 47 76
78 72 70 67 65 63 58 57 53 50 45 44 39 39 40 36 32 28 25 26 57 46 34 49 78 89 90 83 77 57 54 58 51 54 53 40 39 38 39 39 39 47 64 68 65 61 58 55 61 82 80 50 56 88
70 68 66 64 56 53 48 44 45 44 40 39 36 33 33 30 26 28 27 56 79 44 54 73 87 94 92 82 84 76 60 52 46 43 44 43 38 37 36 37 38 38 45 62 69 67 60 54 68 79 53 49 70 94
59 54 53 52 52 46 43 41 41 40 39 37 36 32 30 28 28 35 65 100 70 69 84 92 89 79 70 59 49 46 48 43 36 28 25 22 22 23 23 24 30 34 41 56 70 71 64 64 75 58 47 59 91 100
48 46 43 39 37 33 32 31 30 29 28 27 27 28 33 36 42 81 100 98 92 93 97 100 96 81 62 46 39 33 30 27 25 23 23 23 22 20 19 18 18 23 33 55 71 74 72 76 63 48 57 86 100 100
45 43 40 38 37 37 37 35 33 31 29 26 30 68 79 76 88 100 100 100 97 94 94 95 95 90 78 60 46 39 37 36 36 33 29 26 24 21 18 16 16 19 34 60 77 81 81 70 53 60 87 100 100 98
41 43 43 44 44 39 36 34 33 31 28 38 93 100 100 100 94 100 100 100 98 89 79 72 68 67 64 58 52 43 36 31 25 22 20 20 20 18 14 14 15 24 53 79 82 86 78 59 68 89 100 100 99 96
41 43 41 40 40 35 32 31 30 32 55 99 100 100 97 100 100 100 100 91 80 74 61 51 55 56 52 46 39 26 19 17 16 15 15 15 15 14 13 14 26 59 79 83 86 74 62 78 93 100 100 100 97 87
30 29 30 29 29 30 31 34 39 60 100 100 100 94 89 98 95 89 85 80 81 78 66 54 44 46 46 41 32 24 20 21 20 21 18 15 14 15 24 47 72 80 82 80 70 72 82 99 100 100 100 94 87 63
70 72 67 53 45 45 45 67 62 55 75 82 74 68 65 68 73 72 71 71 63 58 53 48 47 46 40 34 27 23 24 42 41 33 24 24 28 44 67 78 81 79 71 68 74 91 100 100 100 100 95 88 63 45
100 100 100 100 100 86 61 54 51 49 53 54 49 45 40 38 39 47 54 56 55 50 48 47 44 37 33 27 25 26 44 57 54 47 48 64 79 83 81 78 68 64 69 89 100 100 100 100 100 95 85 61 47 21
100 100 100 99 87 83 86 87 89 90 90 81 76 70 68 64 65 71 73 66 58 50 47 41 34 26 26 30 43 64 70 67 73 84 86 86 85 80 69 68 75 95 100 100 100 100 100 97 92 82 60 48 23 14
100 100 100 100 100 100 100 93 93 83 91 91 90 88 86 81 76 72 66 52 39 33 29 30 30 36 50 63 73 72 84 94 93 88 89 88 80 79 86 97 100 100 100 100 100 98 96 90 79 59 48 25 14 18

GFSWCAN_500_rhum_120.txt.gz
RH
100 100 100 100 100 98 100 100 84 57 44 43 54 71 89 100 100 97 99 100 100 100 100 100 100 100 100 100 100 74 63 81 41 39 36 28 23 15 9 5 4 5 6 8 13 79 100 100 100 100 100 100 100 98
100 100 100 99 100 96 100 100 100 100 100 96 96 98 100 98 100 100 100 100 100 97 100 99 100 100 98 93 84 99 70 44 40 38 33 26 17 7 4 4 6 8 10 11 20 59 100 100 100 100 100 100 100 98
100 100 100 100 100 100 100 100 100 100 100 100 100 100 100 100 100 100 100 100 100 100 100 100 100 100 100 100 98 59 44 42 44 37 26 13 5 5 6 8 7 8 24 37 39 79 100 100 100 100 100 100 100 94
100 100 100 100 100 100 100 100 100 100 100 100 100 98 100 100 100 100 100 100 100 100 100 100 100 100 100 98 68 50 43 46 38 25 10 5 5 6 12 17 12 12 90 100 100 100 100 100 100 100 100 100 100 78
100 100 100 100 100 100 100 100 100 100 100 100 100 96 100 100 100 100 100 100 100 100 100 100 100 100 98 90 77 57 52 38 20 7 5 6 9 15 23 24 18 11 35 96 99 100 100 100 100 100 100 100 85 56
100 100 100 100 100 100 100 100 100 100 100 100 100 100 100 100 100 99 98 98 100 100 100 100 100 100 97 87 83 62 34 14 5 6 7 10 15 21 29 34 25 14 27 62 100 100 100 100 100 100 100 100 71 44
100 100 100 100 100 99 100 100 100 100 100 100 100 100 100 100 100 100 100 99 98 100 100 100 99 100 100 93 62 32 12 6 6 8 11 20 29 30 34 40 48 24 76 62 100 100 100 100 100 100 100 100 86 67
100 100 100 100 100 99 100 100 100 100 100 100 100 100 100 100 100 100 100 100 100 100 100 99 99 96 90 59 30 13 7 6 8 12 17 29 31 35 41 38 56 56 100 100 92 100 100 100 100 100 100 100 90 73
100 100 100 100 99 100 100 100 100 100 98 100 100 98 100 100 100 100 100 97 98 99 100 100 100 93 70 29 12 7 6 6 10 17 27 31 29 26 37 48 42 58 77 97 100 100 100 100 100 99 99 98 86 53
100 100 100 100 100 100 100 100 100 100 100 100 97 99 98 100 100 100 100 100 100 100 100 100 92 56 36 13 8 6 7 8 12 19 31 35 31 26 27 53 35 65 63 83 96 98 99 88 83 82 68 58 37 25
100 100 100 100 100 100 100 100 100 98 100 100 100 100 100 100 100 100 100 99 98 96 99 90 78 32 15 8 7 7 7 10 14 24 37 35 31 22 22 54 41 33 52 56 69 66 53 48 46 43 38 33 31 33
100 100 100 100 100 100 100 100 100 99 99 100 100 100 100 100 100 100 100 100 99 97 94 85 40 13 9 8 8 9 10 14 20 32 36 36 26 20 31 54 44 42 55 61 60 63 68 72 70 65 61 64 63 55
100 100 100 100 100 100 100 100 98 97 98 100 100 100 100 99 100 100 97 95 98 100 82 35 16 12 9 9 9 9 13 18 29 36 37 26 21 31 59 72 85 89 82 78 74 77 83 88 88 87 72 62 74 72
100 100 100 100 100 100 99 99 100 100 100 100 97 99 100 99 97 99 100 100 99 80 30 18 15 11 10 9 10 14 17 26 42 47 28 40 57 82 91 89 81 71 72 89 93 95 100 94 73 68 81 82 71 64
100 100 99 98 100 98 98 99 100 94 95 96 100 100 100 100 100 100 100 97 60 27 20 16 12 12 11 11 13 15 19 34 45 31 47 68 74 76 77 78 80 90 98 100 98 91 72 65 76 90 86 76 67 59
100 100 100 100 100 100 100 100 100 100 100 100 100 100 100 99 100 100 91 46 28 23 20 16 14 13 12 13 14 16 26 45 37 30 60 68 75 90 86 83 92 99 98 86 75 62 71 76 90 89 84 76 68 64
100 100 100 97 100 100 100 99 100 100 100 100 100 98 100 100 99 70 38 28 23 21 20 17 15 14 13 14 15 22 40 52 35 42 60 67 74 91 92 95 97 88 82 66 61 67 67 75 78 83 83 83 80 77
100 100 100 100 100 100 100 100 100 99 100 99 100 100 100 90 58 38 30 25 22 20 19 18 16 16 15 15 18 34 54 54 36 53 60 66 88 89 95 92 86 81 65 57 59 63 63 63 65 72 79 82 83 84
100 100 100 100 100 98 99 100 100 100 100 100 100 98 76 50 40 33 28 25 23 21 19 18 17 17 16 17 22 42 60 44 42 46 59 84 88 89 86 82 77 76 71 61 58 59 60 60 60 60 64 71 78 81
100 100 100 100 100 98 100 100 100 99 100 100 99 84 61 45 37 33 32 30 27 24 22 20 18 17 16 21 32 60 58 44 50 58 79 88 90 86 77 68 64 63 67 73 74 71 67 62 61 61 60 60 60 61
100 100 100 100 100 100 100 100 100 97 95 87 75 59 47 42 38 35 33 31 28 25 21 20 19 18 22 34 52 69 62 41 56 76 84 78 75 75 57 42 42 45 49 55 64 69 71 70 69 66 65 60 56 59
97 99 99 98 96 95 91 86 84 76 68 59 52 46 43 40 39 37 35 33 30 26 24 22 23 26 43 59 73 75 67 48 53 58 59 52 59 57 42 42 42 41 41 41 41 42 49 57 64 68 71 70 68 76
79 72 70 71 70 69 65 62 56 53 47 46 43 41 40 39 37 35 32 31 29 27 27 30 34 53 69 78 87 84 85 68 63 67 64 56 48 43 38 32 29 28 28 28 30 32 37 44 56 72 80 81 85 85
64 60 57 54 50 53 48 48 43 46 43 42 41 38 35 35 34 32 31 31 28 28 32 43 62 80 88 88 82 70 71 74 68 61 46 34 27 22 23 22 22 21 20 18 18 19 22 32 59 82 85 93 92 74
56 58 56 58 56 52 48 44 41 39 38 39 37 37 35 33 32 30 30 31 33 34 54 71 82 91 86 76 65 49 41 37 32 31 30 29 27 26 25 24 24 22 20 18 17 17 21 42 77 88 94 92 79 88
58 52 49 49 44 44 39 38 38 37 37 37 36 34 34 35 34 34 39 47 57 76 87 92 97 99 90 88 78 61 49 44 43 40 39 36 31 30 27 24 23 22 18 15 16 20 41 76 88 90 88 82 92 100
49 46 44 42 39 37 35 34 32 31 29 28 27 26 27 36 43 58 87 100 100 97 93 95 97 92 87 86 81 71 62 52 36 27 23 22 23 23 21 19 17 16 15 15 19 47 80 89 88 84 80 96 100 100
46 44 43 40 39 38 36 35 34 33 31 29 27 36 72 77 88 85 91 100 93 93 96 92 80 66 63 62 61 57 50 41 29 23 21 21 21 19 17 16 16 16 19 33 66 87 89 80 72 87 100 100 100 100
33 34 34 35 36 36 36 35 31 31 30 29 30 77 100 99 96 89 98 100 94 91 78 72 72 59 49 47 50 49 46 40 36 27 23 23 24 24 22 22 24 34 61 85 90 79 69 83 100 100 100 100 100 97
28 27 26 26 25 25 26 29 29 29 33 45 79 93 87 87 83 80 82 90 87 74 72 72 65 58 53 46 43 43 37 31 28 26 24 27 32 38 38 49 74 89 94 85 76 89 100 100 100 100 100 99 95 78
74 70 63 56 54 47 40 41 40 36 57 84 98 88 76 72 73 76 77 75 72 72 67 56 53 50 45 43 42 38 35 29 26 28 40 53 57 62 85 94 96 92 88 94 100 100 100 100 100 99 99 92 75 58
73 75 79 74 84 99 100 97 84 58 49 57 63 59 57 55 50 45 44 43 43 43 49 59 62 56 48 44 38 30 29 40 52 62 68 72 95 100 100 98 96 100 100 100 100 100 100 100 100 96 88 73 58 41
79 81 83 82 83 84 84 97 100 98 93 98 96 88 81 75 66 67 72 62 56 53 50 50 47 39 32 30 31 33 44 63 76 82 96 100 100 100 100 100 100 100 100 100 100 100 100 98 92 83 70 56 40 20